| time (UTC) | temp F | wind direction | speed MPH | gust MPH | rain 1hr in | rain 24hr in | rain mn in | humidity % | barometer mb |
| 20260506005527 | 63 | 240 | 5.0 | 9.0 | 0.00 | 0.00 | 0.00 | 74 | 1015.8 |
| 20260506005026 | 63 | 257 | 5.0 | 10.0 | 0.00 | 0.00 | 0.00 | 74 | 1015.8 |
| 20260506004541 | 63 | 197 | 5.0 | 10.0 | 0.00 | 0.00 | 0.00 | 75 | 1016.0 |
| 20260506004028 | 63 | 245 | 3.0 | 11.0 | 0.00 | 0.00 | 0.00 | 74 | 1016.0 |
| 20260506003526 | 63 | 225 | 5.0 | 11.0 | 0.00 | 0.00 | 0.00 | 75 | 1016.0 |
| 20260506003040 | 63 | 219 | 4.0 | 9.0 | 0.00 | 0.00 | 0.00 | 74 | 1015.9 |
| 20260506002526 | 63 | 227 | 3.0 | 9.0 | 0.00 | 0.00 | 0.00 | 76 | 1015.9 |
| 20260506002026 | 62 | 246 | 4.0 | 10.0 | 0.00 | 0.00 | 0.00 | 76 | 1015.9 |
| 20260506001542 | 62 | 226 | 5.0 | 10.0 | 0.00 | 0.00 | 0.00 | 77 | 1015.9 |
| 20260506001026 | 62 | 234 | 3.0 | 9.0 | 0.00 | 0.00 | 0.00 | 77 | 1016.0 |
| 20260506000527 | 62 | 259 | 3.0 | 10.0 | 0.00 | 0.00 | 0.00 | 78 | 1016.0 |
| 20260506000040 | 62 | 284 | 6.0 | 10.0 | 0.00 | 0.00 | 0.00 | 77 | 1015.9 |
| 20260505235530 | 62 | 261 | 3.0 | 10.0 | 0.00 | 0.00 | 0.00 | 77 | 1016.0 |
| 20260505235027 | 62 | 224 | 4.0 | 10.0 | 0.00 | 0.00 | 0.00 | 77 | 1016.0 |
| 20260505234548 | 62 | 232 | 5.0 | 10.0 | 0.00 | 0.00 | 0.00 | 76 | 1016.1 |
| 20260505234026 | 62 | 246 | 2.0 | 7.0 | 0.00 | 0.00 | 0.00 | 76 | 1016.1 |
| 20260505233526 | 62 | 273 | 3.0 | 7.0 | 0.00 | 0.00 | 0.00 | 76 | 1016.2 |
| 20260505233042 | 62 | 200 | 3.0 | 8.0 | 0.00 | 0.00 | 0.00 | 77 | 1016.3 |
| 20260505232527 | 62 | 244 | 4.0 | 8.0 | 0.00 | 0.00 | 0.00 | 76 | 1016.2 |
| 20260505232027 | 63 | 306 | 3.0 | 7.0 | 0.00 | 0.00 | 0.00 | 76 | 1016.3 |
| 20260505231552 | 63 | 292 | 3.0 | 7.0 | 0.00 | 0.00 | 0.00 | 76 | 1016.4 |
| 20260505231027 | 63 | 311 | 3.0 | 9.0 | 0.00 | 0.00 | 0.00 | 79 | 1016.4 |
| 20260505230526 | 62 | 244 | 4.0 | 9.0 | 0.00 | 0.00 | 0.00 | 78 | 1016.5 |
| 20260505230053 | 62 | 259 | 4.0 | 9.0 | 0.00 | 0.00 | 0.00 | 78 | 1016.6 |
| 20260505225528 | 62 | 244 | 2.0 | 10.0 | 0.00 | 0.00 | 0.00 | 78 | 1016.5 |
| 20260505225030 | 62 | 0 | 5.0 | 10.0 | 0.00 | 0.00 | 0.00 | 77 | 1016.6 |
| 20260505224541 | 62 | 207 | 3.0 | 7.0 | 0.00 | 0.00 | 0.00 | 78 | 1016.6 |
| 20260505224026 | 62 | 271 | 2.0 | 6.0 | 0.00 | 0.00 | 0.00 | 78 | 1016.7 |
| 20260505223529 | 61 | 342 | 3.0 | 6.0 | 0.00 | 0.00 | 0.00 | 77 | 1016.6 |
| 20260505223044 | 62 | 296 | 2.0 | 6.0 | 0.00 | 0.00 | 0.00 | 79 | 1016.6 |
| 20260505222527 | 62 | 265 | 1.0 | 11.0 | 0.00 | 0.00 | 0.00 | 79 | 1016.7 |
| 20260505222027 | 61 | 235 | 4.0 | 11.0 | 0.00 | 0.00 | 0.00 | 78 | 1016.7 |
| 20260505221543 | 61 | 168 | 4.0 | 9.0 | 0.00 | 0.00 | 0.00 | 78 | 1016.8 |
| 20260505221034 | 61 | 241 | 3.0 | 9.0 | 0.00 | 0.00 | 0.00 | 78 | 1016.9 |
| 20260505220525 | 61 | 207 | 2.0 | 6.0 | 0.00 | 0.00 | 0.00 | 78 | 1016.8 |
| 20260505220043 | 61 | 0 | 0.0 | 6.0 | 0.00 | 0.00 | 0.00 | 79 | 1016.9 |
| 20260505215529 | 61 | 223 | 1.0 | 8.0 | 0.00 | 0.00 | 0.00 | 80 | 1016.9 |
| 20260505215028 | 61 | 281 | 3.0 | 8.0 | 0.00 | 0.00 | 0.00 | 79 | 1016.8 |
| 20260505214540 | 61 | 275 | 2.0 | 10.0 | 0.00 | 0.00 | 0.00 | 79 | 1016.9 |
| 20260505214026 | 61 | 235 | 4.0 | 10.0 | 0.00 | 0.00 | 0.00 | 78 | 1017.0 |
| 20260505213526 | 61 | 296 | 2.0 | 10.0 | 0.00 | 0.00 | 0.00 | 78 | 1017.0 |
| 20260505213048 | 61 | 220 | 2.0 | 10.0 | 0.00 | 0.00 | 0.00 | 79 | 1016.9 |
| 20260505212531 | 61 | 153 | 3.0 | 8.0 | 0.00 | 0.00 | 0.00 | 78 | 1017.0 |
| 20260505212027 | 61 | 251 | 2.0 | 9.0 | 0.00 | 0.00 | 0.00 | 79 | 1017.0 |
| 20260505211544 | 61 | 175 | 5.0 | 9.0 | 0.00 | 0.00 | 0.00 | 79 | 1017.0 |
| 20260505211026 | 61 | 161 | 4.0 | 8.0 | 0.00 | 0.00 | 0.00 | 79 | 1017.0 |
| 20260505210527 | 61 | 192 | 2.0 | 7.0 | 0.00 | 0.00 | 0.00 | 81 | 1017.1 |
| 20260505210041 | 60 | 174 | 4.0 | 8.0 | 0.00 | 0.00 | 0.00 | 80 | 1017.1 |
| 20260505205528 | 60 | 180 | 4.0 | 8.0 | 0.00 | 0.00 | 0.00 | 79 | 1017.1 |
| 20260505205028 | 60 | 210 | 4.0 | 8.0 | 0.00 | 0.00 | 0.00 | 79 | 1017.1 |
| 20260505204541 | 60 | 222 | 3.0 | 8.0 | 0.00 | 0.00 | 0.00 | 80 | 1017.1 |
| 20260505204026 | 60 | 163 | 4.0 | 8.0 | 0.00 | 0.00 | 0.00 | 81 | 1017.2 |
| 20260505203527 | 60 | 192 | 4.0 | 8.0 | 0.00 | 0.00 | 0.00 | 79 | 1017.2 |
| 20260505203040 | 60 | 232 | 4.0 | 8.0 | 0.00 | 0.00 | 0.00 | 80 | 1017.2 |
| 20260505202527 | 60 | 194 | 3.0 | 9.0 | 0.00 | 0.00 | 0.00 | 81 | 1017.1 |
| 20260505202028 | 60 | 177 | 4.0 | 10.0 | 0.00 | 0.00 | 0.00 | 79 | 1017.2 |
| 20260505201540 | 60 | 174 | 3.0 | 10.0 | 0.00 | 0.00 | 0.00 | 80 | 1017.2 |
| 20260505201028 | 60 | 173 | 3.0 | 8.0 | 0.00 | 0.00 | 0.00 | 80 | 1017.2 |
| 20260505200527 | 60 | 222 | 2.0 | 7.0 | 0.00 | 0.00 | 0.00 | 79 | 1017.1 |
| 20260505200043 | 60 | 225 | 2.0 | 5.0 | 0.00 | 0.00 | 0.00 | 81 | 1017.2 |
| 20260505195531 | 59 | 143 | 3.0 | 5.0 | 0.00 | 0.00 | 0.00 | 79 | 1017.1 |
| 20260505195026 | 59 | 284 | 2.0 | 8.0 | 0.00 | 0.00 | 0.00 | 81 | 1017.2 |
| 20260505194540 | 59 | 227 | 3.0 | 8.0 | 0.00 | 0.00 | 0.00 | 80 | 1017.3 |
| 20260505194026 | 59 | 196 | 3.0 | 7.0 | 0.00 | 0.00 | 0.00 | 81 | 1017.3 |
| 20260505193525 | 59 | 201 | 4.0 | 11.0 | 0.00 | 0.00 | 0.00 | 81 | 1017.2 |
| 20260505193042 | 59 | 167 | 3.0 | 11.0 | 0.00 | 0.00 | 0.00 | 81 | 1017.3 |
| 20260505192528 | 59 | 200 | 4.0 | 11.0 | 0.00 | 0.00 | 0.00 | 80 | 1017.3 |
| 20260505192025 | 59 | 189 | 4.0 | 7.0 | 0.00 | 0.00 | 0.00 | 81 | 1017.2 |
| 20260505191550 | 59 | 173 | 4.0 | 7.0 | 0.00 | 0.00 | 0.00 | 81 | 1017.2 |
| 20260505191025 | 59 | 214 | 3.0 | 8.0 | 0.00 | 0.00 | 0.00 | 83 | 1017.1 |
| 20260505190526 | 59 | 166 | 3.0 | 8.0 | 0.00 | 0.00 | 0.00 | 81 | 1017.1 |
| 20260505190040 | 59 | 237 | 2.0 | 8.0 | 0.00 | 0.00 | 0.00 | 81 | 1017.0 |
| 20260505185526 | 58 | 138 | 5.0 | 8.0 | 0.00 | 0.00 | 0.00 | 82 | 1017.1 |
| 20260505185026 | 58 | 179 | 4.0 | 6.0 | 0.00 | 0.00 | 0.00 | 81 | 1017.3 |
| 20260505184540 | 58 | 224 | 2.0 | 5.0 | 0.00 | 0.00 | 0.00 | 82 | 1017.3 |
| 20260505184026 | 58 | 208 | 2.0 | 5.0 | 0.00 | 0.00 | 0.00 | 81 | 1017.3 |
| 20260505183526 | 58 | 232 | 2.0 | 5.0 | 0.00 | 0.00 | 0.00 | 82 | 1017.3 |
| 20260505183048 | 58 | 196 | 2.0 | 6.0 | 0.00 | 0.00 | 0.00 | 82 | 1017.3 |
| 20260505182528 | 58 | 222 | 2.0 | 6.0 | 0.00 | 0.00 | 0.00 | 82 | 1017.1 |
| 20260505182026 | 58 | 192 | 3.0 | 7.0 | 0.00 | 0.00 | 0.00 | 83 | 1017.1 |
| 20260505181543 | 58 | 172 | 4.0 | 7.0 | 0.00 | 0.00 | 0.00 | 83 | 1017.2 |
| 20260505181026 | 58 | 217 | 4.0 | 7.0 | 0.00 | 0.00 | 0.00 | 82 | 1017.1 |
| 20260505180525 | 58 | 176 | 3.0 | 7.0 | 0.00 | 0.00 | 0.00 | 83 | 1017.0 |
| 20260505180059 | 57 | 231 | 3.0 | 7.0 | 0.00 | 0.00 | 0.00 | 83 | 1016.9 |
| 20260505175526 | 57 | 159 | 2.0 | 6.0 | 0.00 | 0.00 | 0.00 | 83 | 1017.0 |
| 20260505175027 | 57 | 204 | 5.0 | 6.0 | 0.00 | 0.00 | 0.00 | 82 | 1017.0 |
| 20260505174552 | 57 | 202 | 2.0 | 5.0 | 0.00 | 0.00 | 0.00 | 83 | 1017.0 |
| 20260505174026 | 57 | 178 | 3.0 | 8.0 | 0.00 | 0.00 | 0.00 | 83 | 1017.0 |
| 20260505173529 | 57 | 157 | 4.0 | 8.0 | 0.00 | 0.00 | 0.00 | 83 | 1017.0 |
| 20260505173045 | 57 | 175 | 3.0 | 8.0 | 0.00 | 0.00 | 0.00 | 83 | 1016.8 |
| 20260505172526 | 57 | 134 | 3.0 | 8.0 | 0.00 | 0.00 | 0.00 | 83 | 1017.0 |
| 20260505172028 | 57 | 159 | 5.0 | 8.0 | 0.00 | 0.00 | 0.00 | 83 | 1016.8 |
| 20260505171542 | 57 | 142 | 3.0 | 6.0 | 0.00 | 0.00 | 0.00 | 83 | 1016.9 |
| 20260505171026 | 57 | 186 | 3.0 | 9.0 | 0.00 | 0.00 | 0.00 | 84 | 1016.8 |
| 20260505170526 | 57 | 171 | 3.0 | 9.0 | 0.00 | 0.00 | 0.00 | 83 | 1016.8 |
| 20260505170046 | 57 | 184 | 3.0 | 6.0 | 0.00 | 0.00 | 0.00 | 83 | 1016.8 |
| 20260505165528 | 57 | 149 | 3.0 | 6.0 | 0.00 | 0.00 | 0.00 | 83 | 1016.7 |
| 20260505165029 | 57 | 161 | 2.0 | 6.0 | 0.00 | 0.00 | 0.00 | 83 | 1016.7 |
| 20260505164543 | 57 | 207 | 4.0 | 9.0 | 0.00 | 0.00 | 0.00 | 84 | 1016.7 |
| 20260505164031 | 57 | 225 | 5.0 | 9.0 | 0.00 | 0.00 | 0.00 | 83 | 1016.7 |
| 20260505163527 | 57 | 169 | 4.0 | 8.0 | 0.00 | 0.00 | 0.00 | 84 | 1016.5 |
| 20260505163042 | 57 | 146 | 4.0 | 8.0 | 0.00 | 0.00 | 0.00 | 83 | 1016.5 |
| 20260505162525 | 57 | 157 | 5.0 | 8.0 | 0.00 | 0.00 | 0.00 | 84 | 1016.4 |
| 20260505162026 | 57 | 171 | 3.0 | 9.0 | 0.00 | 0.00 | 0.00 | 84 | 1016.4 |
| 20260505161552 | 56 | 189 | 5.0 | 9.0 | 0.00 | 0.00 | 0.00 | 84 | 1016.4 |
| 20260505161027 | 56 | 164 | 5.0 | 9.0 | 0.00 | 0.00 | 0.00 | 84 | 1016.3 |
| 20260505160527 | 56 | 154 | 5.0 | 7.0 | 0.00 | 0.00 | 0.00 | 85 | 1016.4 |
| 20260505153044 | 56 | 176 | 5.0 | 8.0 | 0.00 | 0.00 | 0.00 | 86 | 1016.2 |
| 20260505152525 | 56 | 205 | 3.0 | 7.0 | 0.00 | 0.00 | 0.00 | 87 | 1016.1 |
| 20260505152025 | 56 | 159 | 2.0 | 6.0 | 0.00 | 0.00 | 0.00 | 87 | 1016.1 |
| 20260505151542 | 56 | 168 | 3.0 | 6.0 | 0.00 | 0.00 | 0.00 | 87 | 1016.1 |
| 20260505151026 | 56 | 167 | 3.0 | 6.0 | 0.00 | 0.00 | 0.00 | 87 | 1016.0 |
| 20260505150526 | 56 | 169 | 4.0 | 6.0 | 0.00 | 0.00 | 0.00 | 87 | 1016.0 |
| 20260505140526 | 55 | 186 | 1.0 | 4.0 | 0.00 | 0.00 | 0.00 | 89 | 1015.6 |
| 20260505125025 | 55 | 207 | 2.0 | 4.0 | 0.00 | 0.00 | 0.00 | 89 | 1015.0 |
| 20260505124538 | 55 | 227 | 1.0 | 3.0 | 0.00 | 0.00 | 0.00 | 89 | 1015.1 |
| 20260505124025 | 55 | 184 | 1.0 | 4.0 | 0.00 | 0.00 | 0.00 | 89 | 1015.0 |
| 20260505123527 | 55 | 215 | 2.0 | 4.0 | 0.00 | 0.00 | 0.00 | 89 | 1015.0 |
| 20260505123038 | 55 | 204 | 1.0 | 4.0 | 0.00 | 0.00 | 0.00 | 88 | 1015.0 |
| 20260505122526 | 55 | 218 | 2.0 | 9.0 | 0.00 | 0.00 | 0.00 | 88 | 1014.9 |
| 20260505122026 | 55 | 198 | 2.0 | 9.0 | 0.00 | 0.00 | 0.00 | 88 | 1014.9 |
| 20260505121542 | 55 | 192 | 3.0 | 7.0 | 0.00 | 0.00 | 0.00 | 88 | 1014.9 |
| 20260505121026 | 55 | 227 | 3.0 | 7.0 | 0.00 | 0.00 | 0.00 | 88 | 1014.8 |
| 20260505120525 | 55 | 215 | 1.0 | 6.0 | 0.00 | 0.00 | 0.00 | 89 | 1014.8 |
| 20260505120040 | 55 | 179 | 3.0 | 6.0 | 0.00 | 0.00 | 0.00 | 89 | 1014.7 |
| 20260505115525 | 55 | 187 | 3.0 | 6.0 | 0.00 | 0.00 | 0.00 | 89 | 1014.7 |
| 20260505115025 | 55 | 210 | 3.0 | 6.0 | 0.00 | 0.00 | 0.00 | 89 | 1014.6 |
| 20260505114541 | 55 | 176 | 2.0 | 6.0 | 0.00 | 0.00 | 0.00 | 89 | 1014.6 |
| 20260505114028 | 55 | 163 | 4.0 | 6.0 | 0.00 | 0.00 | 0.00 | 89 | 1014.5 |
| 20260505113524 | 55 | 183 | 3.0 | 6.0 | 0.00 | 0.00 | 0.00 | 89 | 1014.6 |
| 20260505113044 | 55 | 183 | 3.0 | 6.0 | 0.00 | 0.00 | 0.00 | 89 | 1014.6 |
| 20260505112526 | 55 | 215 | 2.0 | 5.0 | 0.00 | 0.00 | 0.00 | 89 | 1014.6 |
| 20260505112026 | 55 | 198 | 2.0 | 6.0 | 0.00 | 0.00 | 0.00 | 89 | 1014.5 |
| 20260505111541 | 55 | 231 | 2.0 | 6.0 | 0.00 | 0.00 | 0.00 | 89 | 1014.5 |
| 20260505111026 | 55 | 231 | 3.0 | 7.0 | 0.00 | 0.00 | 0.00 | 89 | 1014.6 |
| 20260505110528 | 55 | 189 | 2.0 | 7.0 | 0.00 | 0.00 | 0.00 | 88 | 1014.5 |
| 20260505102026 | 55 | 169 | 2.0 | 9.0 | 0.00 | 0.00 | 0.00 | 88 | 1014.3 |
| 20260505101559 | 55 | 224 | 5.0 | 9.0 | 0.00 | 0.00 | 0.00 | 88 | 1014.2 |
| 20260505101026 | 55 | 182 | 3.0 | 6.0 | 0.00 | 0.00 | 0.00 | 88 | 1014.3 |
| 20260505100526 | 55 | 202 | 3.0 | 9.0 | 0.00 | 0.00 | 0.00 | 88 | 1014.2 |
| 20260505100059 | 55 | 184 | 5.0 | 9.0 | 0.00 | 0.00 | 0.00 | 87 | 1014.1 |
| 20260505095529 | 55 | 216 | 4.0 | 9.0 | 0.00 | 0.00 | 0.00 | 87 | 1014.2 |
| 20260505095025 | 55 | 213 | 1.0 | 7.0 | 0.00 | 0.00 | 0.00 | 87 | 1014.1 |
| 20260505094540 | 55 | 269 | 4.0 | 7.0 | 0.00 | 0.00 | 0.00 | 87 | 1014.2 |
| 20260505094025 | 55 | 256 | 2.0 | 8.0 | 0.00 | 0.00 | 0.00 | 87 | 1014.1 |
| 20260505093525 | 55 | 226 | 4.0 | 8.0 | 0.00 | 0.00 | 0.00 | 87 | 1014.1 |
| 20260505093040 | 55 | 237 | 3.0 | 8.0 | 0.00 | 0.00 | 0.00 | 87 | 1014.0 |
| 20260505092525 | 55 | 205 | 4.0 | 8.0 | 0.00 | 0.00 | 0.00 | 88 | 1014.0 |
| 20260505092026 | 55 | 278 | 1.0 | 9.0 | 0.00 | 0.00 | 0.00 | 88 | 1014.0 |
| 20260505091543 | 55 | 238 | 2.0 | 9.0 | 0.00 | 0.00 | 0.00 | 88 | 1014.0 |
| 20260505091025 | 55 | 208 | 3.0 | 5.0 | 0.00 | 0.00 | 0.00 | 88 | 1014.0 |
| 20260505090525 | 55 | 237 | 1.0 | 4.0 | 0.00 | 0.00 | 0.00 | 88 | 1013.9 |
| 20260505090042 | 55 | 240 | 2.0 | 4.0 | 0.00 | 0.00 | 0.00 | 88 | 1013.8 |
| 20260505085526 | 55 | 243 | 1.0 | 3.0 | 0.00 | 0.00 | 0.00 | 89 | 1013.9 |
| 20260505085026 | 55 | 232 | 2.0 | 7.0 | 0.00 | 0.00 | 0.00 | 89 | 1013.9 |
| 20260505084543 | 55 | 279 | 2.0 | 7.0 | 0.00 | 0.00 | 0.00 | 89 | 1013.9 |
| 20260505084026 | 55 | 231 | 3.0 | 7.0 | 0.00 | 0.00 | 0.00 | 89 | 1013.9 |
| 20260505083526 | 54 | 249 | 4.0 | 7.0 | 0.00 | 0.00 | 0.00 | 89 | 1013.9 |
| 20260505083041 | 54 | 238 | 3.0 | 6.0 | 0.00 | 0.00 | 0.00 | 90 | 1013.8 |
| 20260505082525 | 54 | 234 | 3.0 | 6.0 | 0.00 | 0.00 | 0.00 | 91 | 1013.8 |
| 20260505082025 | 54 | 205 | 2.0 | 4.0 | 0.00 | 0.00 | 0.00 | 91 | 1013.8 |
| 20260505081548 | 54 | 0 | 2.0 | 7.0 | 0.00 | 0.00 | 0.00 | 91 | 1013.9 |
| 20260505081025 | 53 | 236 | 1.0 | 7.0 | 0.00 | 0.00 | 0.00 | 92 | 1013.8 |
| 20260505080525 | 53 | 216 | 3.0 | 7.0 | 0.00 | 0.00 | 0.00 | 92 | 1013.8 |
| 20260505080049 | 53 | 208 | 2.0 | 5.0 | 0.00 | 0.00 | 0.00 | 92 | 1013.9 |
| 20260505075525 | 53 | 184 | 2.0 | 5.0 | 0.00 | 0.00 | 0.00 | 92 | 1013.8 |
| 20260505075023 | 52 | 224 | 2.0 | 5.0 | 0.00 | 0.00 | 0.00 | 92 | 1013.8 |
| 20260505074543 | 52 | 190 | 2.0 | 5.0 | 0.00 | 0.00 | 0.00 | 92 | 1013.8 |
| 20260505074023 | 52 | 179 | 3.0 | 5.0 | 0.00 | 0.00 | 0.00 | 92 | 1013.7 |
| 20260505073526 | 52 | 176 | 3.0 | 5.0 | 0.00 | 0.00 | 0.00 | 92 | 1013.7 |
| 20260505073043 | 52 | 151 | 3.0 | 5.0 | 0.00 | 0.00 | 0.00 | 92 | 1013.7 |
| 20260505072522 | 52 | 198 | 4.0 | 6.0 | 0.00 | 0.00 | 0.00 | 92 | 1013.6 |
| 20260505072025 | 52 | 171 | 3.0 | 6.0 | 0.00 | 0.00 | 0.00 | 92 | 1013.4 |
| 20260505071549 | 52 | 200 | 3.0 | 5.0 | 0.00 | 0.00 | 0.00 | 92 | 1013.4 |
| 20260505071025 | 52 | 142 | 2.0 | 5.0 | 0.00 | 0.00 | 0.00 | 92 | 1013.3 |
| 20260505070526 | 52 | 167 | 3.0 | 6.0 | 0.00 | 0.00 | 0.00 | 92 | 1013.2 |
| 20260505070040 | 52 | 151 | 2.0 | 6.0 | 0.00 | 0.00 | 0.00 | 92 | 1013.2 |
| 20260505065526 | 52 | 173 | 2.0 | 4.0 | 0.00 | 0.00 | 0.00 | 92 | 1013.2 |
| 20260505065025 | 52 | 185 | 2.0 | 5.0 | 0.00 | 0.00 | 0.00 | 91 | 1013.1 |
| 20260505064544 | 52 | 198 | 2.0 | 5.0 | 0.00 | 0.00 | 0.00 | 91 | 1013.1 |
| 20260505064025 | 52 | 151 | 2.0 | 5.0 | 0.00 | 0.00 | 0.00 | 91 | 1013.0 |
| 20260505063525 | 52 | 158 | 3.0 | 5.0 | 0.00 | 0.00 | 0.00 | 91 | 1012.9 |
| 20260505063047 | 52 | 152 | 3.0 | 5.0 | 0.00 | 0.00 | 0.00 | 90 | 1012.9 |
| 20260505062525 | 53 | 151 | 1.0 | 6.0 | 0.00 | 0.00 | 0.00 | 90 | 1012.8 |
| 20260505062025 | 53 | 142 | 3.0 | 6.0 | 0.00 | 0.00 | 0.00 | 90 | 1012.7 |
| 20260505061545 | 53 | 150 | 2.0 | 5.0 | 0.00 | 0.00 | 0.00 | 90 | 1012.6 |
| 20260505061026 | 53 | 171 | 2.0 | 4.0 | 0.00 | 0.00 | 0.00 | 89 | 1012.6 |
| 20260505060525 | 53 | 149 | 2.0 | 5.0 | 0.00 | 0.00 | 0.00 | 89 | 1012.7 |
| 20260505060043 | 53 | 132 | 2.0 | 6.0 | 0.00 | 0.00 | 0.00 | 90 | 1012.6 |
| 20260505055526 | 53 | 182 | 2.0 | 6.0 | 0.00 | 0.00 | 0.00 | 89 | 1012.7 |
| 20260505055026 | 54 | 205 | 2.0 | 5.0 | 0.00 | 0.00 | 0.00 | 89 | 1012.6 |
| 20260505054547 | 54 | 175 | 1.0 | 5.0 | 0.00 | 0.00 | 0.00 | 89 | 1012.7 |
| 20260505054026 | 54 | 225 | 2.0 | 4.0 | 0.00 | 0.00 | 0.00 | 89 | 1012.7 |
| 20260505053525 | 54 | 180 | 2.0 | 4.0 | 0.00 | 0.00 | 0.00 | 89 | 1012.6 |
| 20260505053047 | 54 | 183 | 2.0 | 5.0 | 0.00 | 0.00 | 0.00 | 89 | 1012.6 |
| 20260505052528 | 54 | 215 | 2.0 | 5.0 | 0.00 | 0.00 | 0.00 | 89 | 1012.6 |
| 20260505052028 | 54 | 173 | 1.0 | 5.0 | 0.00 | 0.00 | 0.00 | 89 | 1012.5 |
| 20260505051543 | 54 | 201 | 2.0 | 6.0 | 0.00 | 0.00 | 0.00 | 88 | 1012.7 |
| 20260505051024 | 54 | 165 | 3.0 | 6.0 | 0.00 | 0.00 | 0.00 | 88 | 1012.7 |
| 20260505050525 | 54 | 258 | 2.0 | 6.0 | 0.00 | 0.00 | 0.00 | 88 | 1012.5 |
| 20260505041540 | 55 | 192 | 3.0 | 6.0 | 0.00 | 0.00 | 0.00 | 86 | 1012.1 |
| 20260505041025 | 55 | 182 | 2.0 | 5.0 | 0.00 | 0.00 | 0.00 | 85 | 1012.0 |
| 20260505040525 | 56 | 170 | 3.0 | 8.0 | 0.00 | 0.00 | 0.00 | 85 | 1012.1 |
| 20260505040045 | 56 | 214 | 3.0 | 8.0 | 0.00 | 0.00 | 0.00 | 85 | 1011.9 |
| 20260505035524 | 56 | 219 | 2.0 | 9.0 | 0.00 | 0.00 | 0.00 | 84 | 1011.9 |
| 20260505035024 | 56 | 184 | 4.0 | 9.0 | 0.00 | 0.00 | 0.00 | 84 | 1011.8 |
| 20260505034546 | 57 | 202 | 4.0 | 9.0 | 0.00 | 0.00 | 0.00 | 83 | 1011.8 |
| 20260505034025 | 57 | 246 | 4.0 | 9.0 | 0.00 | 0.00 | 0.00 | 83 | 1011.6 |
| 20260505033525 | 57 | 255 | 3.0 | 8.0 | 0.00 | 0.00 | 0.00 | 82 | 1011.6 |
| 20260505033041 | 57 | 210 | 4.0 | 9.0 | 0.00 | 0.00 | 0.00 | 81 | 1011.5 |
| 20260505032525 | 58 | 243 | 5.0 | 12.0 | 0.00 | 0.00 | 0.00 | 81 | 1011.5 |
| 20260505032023 | 58 | 180 | 4.0 | 12.0 | 0.00 | 0.00 | 0.00 | 80 | 1011.5 |
| 20260505031547 | 58 | 226 | 5.0 | 15.0 | 0.00 | 0.00 | 0.00 | 79 | 1011.5 |
| 20260505031027 | 59 | 214 | 8.0 | 15.0 | 0.00 | 0.00 | 0.00 | 78 | 1011.4 |
| 20260505030525 | 60 | 217 | 8.0 | 13.0 | 0.00 | 0.00 | 0.00 | 76 | 1011.3 |
| 20260505030042 | 61 | 240 | 8.0 | 13.0 | 0.00 | 0.00 | 0.00 | 75 | 1011.3 |
| 20260505025526 | 62 | 210 | 4.0 | 9.0 | 0.00 | 0.00 | 0.00 | 74 | 1011.3 |
| 20260505025025 | 62 | 244 | 3.0 | 9.0 | 0.00 | 0.00 | 0.00 | 73 | 1011.1 |
| 20260505024544 | 63 | 248 | 5.0 | 9.0 | 0.00 | 0.00 | 0.00 | 72 | 1011.1 |
| 20260505024026 | 63 | 241 | 4.0 | 9.0 | 0.00 | 0.00 | 0.00 | 71 | 1011.0 |
| 20260505023523 | 64 | 231 | 5.0 | 10.0 | 0.00 | 0.00 | 0.00 | 70 | 1011.0 |
| 20260505023050 | 64 | 218 | 5.0 | 11.0 | 0.00 | 0.00 | 0.00 | 70 | 1010.9 |
| 20260505022523 | 64 | 221 | 5.0 | 11.0 | 0.00 | 0.00 | 0.00 | 69 | 1010.9 |
| 20260505022023 | 65 | 186 | 5.0 | 11.0 | 0.00 | 0.00 | 0.00 | 68 | 1010.8 |
| 20260505021544 | 65 | 219 | 5.0 | 11.0 | 0.00 | 0.00 | 0.00 | 67 | 1010.9 |
| 20260505021022 | 66 | 180 | 5.0 | 11.0 | 0.00 | 0.00 | 0.00 | 67 | 1010.9 |
| 20260505020522 | 66 | 260 | 5.0 | 10.0 | 0.00 | 0.00 | 0.00 | 66 | 1010.8 |
| 20260505020040 | 66 | 243 | 4.0 | 15.0 | 0.00 | 0.00 | 0.00 | 67 | 1010.8 |
| 20260505015523 | 66 | 233 | 6.0 | 15.0 | 0.00 | 0.00 | 0.00 | 66 | 1010.8 |
| 20260505015026 | 67 | 213 | 7.0 | 15.0 | 0.00 | 0.00 | 0.00 | 66 | 1010.8 |
| 20260505014542 | 67 | 220 | 8.0 | 12.0 | 0.00 | 0.00 | 0.00 | 65 | 1010.8 |
| 20260505014022 | 68 | 221 | 6.0 | 11.0 | 0.00 | 0.00 | 0.00 | 65 | 1010.8 |
| 20260505013525 | 68 | 180 | 6.0 | 10.0 | 0.00 | 0.00 | 0.00 | 64 | 1010.8 |
| 20260505013039 | 68 | 225 | 4.0 | 11.0 | 0.00 | 0.00 | 0.00 | 65 | 1010.9 |
| 20260505012525 | 68 | 220 | 6.0 | 11.0 | 0.00 | 0.00 | 0.00 | 65 | 1010.8 |
| 20260505012025 | 69 | 221 | 5.0 | 10.0 | 0.00 | 0.00 | 0.00 | 63 | 1010.8 |
| 20260505011544 | 69 | 222 | 5.0 | 9.0 | 0.00 | 0.00 | 0.00 | 63 | 1010.7 |
| 20260505011027 | 70 | 242 | 4.0 | 11.0 | 0.00 | 0.00 | 0.00 | 63 | 1010.7 |
| 20260505010525 | 70 | 239 | 6.0 | 11.0 | 0.00 | 0.00 | 0.00 | 63 | 1010.7 |
| 20260505010103 | 70 | 173 | 6.0 | 13.0 | 0.00 | 0.00 | 0.00 | 62 | 1010.7 |